Tracking 19212 objects as of 16-Jul-2018
HD Live streaming from Space Station
objects crossing your sky now

FENGYUN 1C DEB

Track FENGYUN 1C DEB now!
10-day predictions


NORAD ID: 30043
Int'l Code: 1999-025NU
Perigee: 629.1 km
Apogee: 1,094.9 km
Inclination: 98.4 °
Period: 102.0 minutes
Semi major axis: 7232 km
RCS: 0.0335 m2 (small)
Launch date: May 10, 1999
Source: People's Republic of China (PRC)
Launch site: Taiyaun Space Center, China (TSC)

Note: This is SATELLITE DEBRIS
aabbcc
Your satellite tracking list
Your tracking list is empty




NASA's NSSDC Master Catalog

Two Line Element Set (TLE):
1 30043U 99025NU  18196.40338272 +.00000355 +00000-0 +13695-3 0  9999
2 30043 098.4129 007.8037 0321968 350.5920 008.9311 14.11326528590732
Source of the keplerian elements: AFSPC